TimeEST,TemperatureF,Dew PointF,Humidity,Sea Level PressureIn,VisibilityMPH,Wind Direction,Wind SpeedMPH,Gust SpeedMPH,PrecipitationIn,Events,Conditions,WindDirDegrees,DateUTC
12:53 AM,24.1,21.0,88,30.14,9.0,Calm,Calm,-,N/A,,Clear,0,2012-11-25 05:53:00
1:53 AM,27.0,21.9,81,30.13,9.0,Calm,Calm,-,N/A,,Clear,0,2012-11-25 06:53:00
2:53 AM,28.0,23.0,81,30.12,9.0,Calm,Calm,-,N/A,,Clear,0,2012-11-25 07:53:00
3:53 AM,25.0,21.0,85,30.12,9.0,Calm,Calm,-,N/A,,Clear,0,2012-11-25 08:53:00
4:53 AM,25.0,21.0,85,30.09,10.0,Calm,Calm,-,N/A,,Clear,0,2012-11-25 09:53:00
5:53 AM,28.9,21.0,72,30.08,10.0,Calm,Calm,-,N/A,,Clear,0,2012-11-25 10:53:00
6:53 AM,30.9,21.0,67,30.06,10.0,SSW,5.8,-,N/A,,Clear,200,2012-11-25 11:53:00
7:53 AM,32.0,21.0,64,30.04,10.0,South,6.9,-,N/A,,Clear,190,2012-11-25 12:53:00
8:53 AM,33.1,21.9,64,30.03,10.0,SSW,5.8,-,N/A,,Mostly Cloudy,200,2012-11-25 13:53:00
9:53 AM,35.1,21.9,59,30.03,10.0,SSW,4.6,-,N/A,,Clear,210,2012-11-25 14:53:00
10:53 AM,37.9,23.0,55,30.02,10.0,Variable,5.8,-,N/A,,Clear,0,2012-11-25 15:53:00
11:53 AM,39.9,21.9,49,29.99,10.0,SW,9.2,-,N/A,,Clear,220,2012-11-25 16:53:00
12:53 PM,45.0,24.1,44,29.96,10.0,WSW,11.5,17.3,N/A,,Clear,240,2012-11-25 17:53:00
1:53 PM,46.9,24.1,41,29.94,10.0,WSW,10.4,18.4,N/A,,Clear,250,2012-11-25 18:53:00
2:53 PM,48.0,24.1,39,29.93,10.0,SW,6.9,-,N/A,,Clear,230,2012-11-25 19:53:00
3:53 PM,46.9,24.1,41,29.94,10.0,Variable,6.9,-,N/A,,Scattered Clouds,0,2012-11-25 20:53:00
4:53 PM,45.0,25.0,46,29.96,10.0,WSW,4.6,-,N/A,,Scattered Clouds,250,2012-11-25 21:53:00
5:53 PM,36.0,26.1,67,29.97,10.0,Calm,Calm,-,N/A,,Clear,0,2012-11-25 22:53:00
6:53 PM,37.0,27.0,67,29.99,10.0,Calm,Calm,-,N/A,,Clear,0,2012-11-25 23:53:00
7:53 PM,37.0,28.0,70,30.01,10.0,Calm,Calm,-,N/A,,Clear,0,2012-11-26 00:53:00
8:53 PM,37.9,30.0,73,30.02,10.0,Calm,Calm,-,N/A,,Mostly Cloudy,0,2012-11-26 01:53:00
9:53 PM,37.9,30.0,73,30.03,10.0,Calm,Calm,-,N/A,,Overcast,0,2012-11-26 02:53:00
10:53 PM,37.9,30.9,76,30.05,10.0,Calm,Calm,-,N/A,,Clear,0,2012-11-26 03:53:00
11:53 PM,36.0,30.0,79,30.06,10.0,Calm,Calm,-,N/A,,Clear,0,2012-11-26 04:53:00